Wind from 243 at 4 knots gusting 7

Air temperature 23.3° C
Dewpoint 5.7° C

Last reported at 2014-Apr-24 01:43 UTC.
Time now 2014-Apr-24 02:10 UTC

Location: S 35°23' E 149°12'.
View on Google Maps.

See reports from other nearby stations

Tides Stations Pressure Air Temp Water Temp Dewpoint Dewpoint depression Visibility Wind Speed Wind Dir Waves Ship positions

  
sailing weather and tide predictions

DW8673 Jerrabomberra AU weather

date/time (UTC)wind fromknots sea level pressurealtimeterstation pressurevisibilityair tempwater tempwave heightnotes
2014-Apr-24 01:43 243 4 gusting 7 23.3
2014-Apr-24 01:33 261 4 gusting 6 23.9
2014-Apr-24 01:13 222 4 gusting 6 23.3
2014-Apr-24 01:03 356 2 gusting 6 23.3
2014-Apr-24 00:43 280 2 gusting 6 22.2
2014-Apr-24 00:33 297 1 gusting 6 22.2
2014-Apr-24 00:13 320 1 gusting 5 21.7
2014-Apr-24 00:03 326 2 gusting 5 21.1
2014-Apr-23 23:43 343 1 gusting 5 20.0
2014-Apr-23 23:33 305 2 gusting 5 18.9
2014-Apr-23 23:13 317 2 gusting 4 17.8
2014-Apr-23 23:03 097 1 gusting 2 17.8
2014-Apr-23 22:43 087 0 gusting 2 16.7
2014-Apr-23 22:33 15.6
2014-Apr-23 22:13 261 13.3
2014-Apr-23 22:03 254 11.7
2014-Apr-23 21:43 10.6
2014-Apr-23 21:33 045 10.0
2014-Apr-23 21:13 045 8.9
2014-Apr-23 21:03 359 8.9
2014-Apr-23 20:43 112 8.3
2014-Apr-23 20:33 112 8.3
2014-Apr-23 20:13 090 8.3
2014-Apr-23 20:03 135 8.3
2014-Apr-23 19:43 112 8.3
2014-Apr-23 19:33 225 8.9
2014-Apr-23 19:13 112 8.9
2014-Apr-23 19:03 135 8.9
2014-Apr-23 18:43 158 8.9
2014-Apr-23 18:33 158 8.9
2014-Apr-23 18:13 158 9.4
2014-Apr-23 18:03 158 9.4
2014-Apr-23 17:43 158 9.4
2014-Apr-23 17:33 068 9.4
2014-Apr-23 17:13 135 9.4
2014-Apr-23 17:03 135 9.4
2014-Apr-23 16:43 318 9.4
2014-Apr-23 16:33 112 9.4
2014-Apr-23 16:13 9.4
2014-Apr-23 16:03 115 9.4
2014-Apr-23 15:43 292 9.4
2014-Apr-23 15:33 101 9.4
2014-Apr-23 15:13 090 10.0
2014-Apr-23 15:03 090 10.0
2014-Apr-23 14:43 090 10.0
2014-Apr-23 14:33 090 10.0
2014-Apr-23 14:13 090 10.6
2014-Apr-23 14:03 077 10.6
2014-Apr-23 13:43 208 10.6
2014-Apr-23 13:33 090 10.6
2014-Apr-23 13:13 090 11.1
2014-Apr-23 13:03 090 11.1
2014-Apr-23 12:43 092 11.7
2014-Apr-23 12:33 112 11.7
2014-Apr-23 12:13 112 11.7
2014-Apr-23 12:03 090 11.7
2014-Apr-23 11:43 180 11.7
2014-Apr-23 11:33 180 12.2
2014-Apr-23 11:13 158 12.2
2014-Apr-23 11:03 158 12.2
2014-Apr-23 10:43 112 12.2
2014-Apr-23 10:33 112 12.2
2014-Apr-23 10:13 202 12.8
2014-Apr-23 10:03 202 12.8
2014-Apr-23 09:43 068 12.8
2014-Apr-23 09:33 270 13.3
2014-Apr-23 09:13 112 13.9
2014-Apr-23 09:03 112 13.9
2014-Apr-23 08:43 090 14.4
2014-Apr-23 08:33 090 14.4
2014-Apr-23 08:13 090 15.0
2014-Apr-23 08:03 090 15.6
2014-Apr-23 07:43 242 16.7
2014-Apr-23 07:33 112 17.2
2014-Apr-23 07:13 349 0 gusting 1 18.3
2014-Apr-23 07:03 358 18.9
2014-Apr-23 06:43 013 1 gusting 4 20.0
2014-Apr-23 06:33 285 1 gusting 6 21.1
2014-Apr-23 06:13 333 2 gusting 5 22.8
2014-Apr-23 06:03 005 3 gusting 6 21.7
2014-Apr-23 05:43 269 0 gusting 5 21.1
2014-Apr-23 05:33 057 1 gusting 6 20.6
2014-Apr-23 05:13 296 2 gusting 5 20.6
2014-Apr-23 05:03 299 1 gusting 4 21.1
2014-Apr-23 04:43 309 0 gusting 4 21.1
2014-Apr-23 04:33 333 1 gusting 5 21.1
2014-Apr-23 04:13 331 2 gusting 5 22.2
2014-Apr-23 04:03 353 1 gusting 5 23.3
2014-Apr-23 03:43 357 1 gusting 4 20.6
2014-Apr-23 03:33 297 1 gusting 4 20.6
2014-Apr-23 03:13 275 0 gusting 2 20.6
2014-Apr-23 03:03 063 0 gusting 5 20.6
2014-Apr-23 02:43 343 0 gusting 2 21.1
2014-Apr-23 02:33 22.2
2014-Apr-23 02:13 211 0 gusting 1 21.7
2014-Apr-23 02:03 260 21.1
2014-Apr-23 01:43 248 1 gusting 5 18.3
2014-Apr-23 01:33 262 17.8
2014-Apr-23 01:13 158 17.8
2014-Apr-23 01:03 230 0 gusting 2 17.8
2014-Apr-23 00:43 264 1 gusting 2 19.4
2014-Apr-23 00:33 274 2 gusting 4 20.0
2014-Apr-23 00:13 216 1 gusting 4 20.0
2014-Apr-23 00:03 342 0 gusting 1 19.4
2014-Apr-22 23:43 051 0 gusting 1 17.8
2014-Apr-22 23:33 160 0 gusting 1 15.6
2014-Apr-22 23:13 093 14.4
2014-Apr-22 23:03 285 13.9
2014-Apr-22 22:43 285 12.2
2014-Apr-22 22:33 248 1 gusting 2 12.2
2014-Apr-22 22:13 248 11.7
2014-Apr-22 22:03 258 11.1
2014-Apr-22 21:43 094 9.4
2014-Apr-22 21:33 068 8.9
2014-Apr-22 21:13 180 8.9
2014-Apr-22 21:03 180 8.3
2014-Apr-22 20:43 045 8.3
2014-Apr-22 20:33 045 8.3
2014-Apr-22 20:13 005 8.3
2014-Apr-22 20:03 112 8.3
2014-Apr-22 19:43 112 8.9
2014-Apr-22 19:33 112 8.9
2014-Apr-22 19:13 068 8.9
2014-Apr-22 19:03 090 8.9
2014-Apr-22 18:43 170 8.9
2014-Apr-22 18:33 248 8.9
2014-Apr-22 18:13 274 8.9
2014-Apr-22 18:03 225 8.9
2014-Apr-22 17:43 225 8.9
2014-Apr-22 17:33 225 8.9
2014-Apr-22 17:13 135 8.9
2014-Apr-22 17:03 225 8.9
2014-Apr-22 16:43 292 8.9
2014-Apr-22 16:33 263 8.9
2014-Apr-22 16:13 202 8.9
2014-Apr-22 16:03 195 8.3
2014-Apr-22 15:43 090 8.3
2014-Apr-22 15:33 135 8.3
2014-Apr-22 15:13 068 8.3
2014-Apr-22 15:03 248 8.3
2014-Apr-22 14:43 225 8.3
2014-Apr-22 14:33 112 8.3
2014-Apr-22 14:13 169 8.3
2014-Apr-22 14:03 047 8.3
2014-Apr-22 13:43 160 8.3
2014-Apr-22 13:33 191 8.3
2014-Apr-22 13:13 112 8.3
2014-Apr-22 13:03 166 8.9
2014-Apr-22 12:43 248 8.9
2014-Apr-22 12:33 202 8.9
2014-Apr-22 12:13 225 8.9
2014-Apr-22 12:03 225 8.9
2014-Apr-22 11:43 180 8.9
2014-Apr-22 11:33 135 9.4
2014-Apr-22 11:13 180 9.4
2014-Apr-22 11:03 228 10.0
2014-Apr-22 10:43 135 10.0
2014-Apr-22 10:33 219 10.6
2014-Apr-22 10:13 246 10.6
2014-Apr-22 10:03 180 10.6
2014-Apr-22 09:43 112 11.1
2014-Apr-22 09:33 068 11.7
2014-Apr-22 09:13 090 12.2
2014-Apr-22 09:03 090 12.8
2014-Apr-22 08:43 130 0 gusting 0 12.8
2014-Apr-22 08:33 112 13.3
2014-Apr-22 08:13 112 14.4
2014-Apr-22 08:03 091 0 gusting 0 14.4
2014-Apr-22 07:43 090 15.6
2014-Apr-22 07:33 172 16.1
2014-Apr-22 07:13 206 0 gusting 1 16.7
2014-Apr-22 07:03 325 0 gusting 4 16.7
2014-Apr-22 06:43 342 1 gusting 4 17.8
2014-Apr-22 06:33 085 17.8
2014-Apr-22 06:13 009 1 gusting 5 17.8
2014-Apr-22 06:03 026 2 gusting 6 18.3
2014-Apr-22 05:43 307 1 gusting 6 18.9
2014-Apr-22 05:33 348 1 gusting 6 19.4
2014-Apr-22 05:13 337 2 gusting 6 21.1
2014-Apr-22 05:03 284 2 gusting 5 21.7
2014-Apr-22 04:43 325 2 gusting 5 21.7
2014-Apr-22 04:33 024 2 gusting 6 22.2
2014-Apr-22 04:13 316 3 gusting 5 23.3
2014-Apr-22 04:03 309 1 gusting 5 23.9
2014-Apr-22 03:43 001 2 gusting 4 23.9
2014-Apr-22 03:33 230 1 gusting 4 23.9
2014-Apr-22 03:13 265 2 gusting 4 23.3
2014-Apr-22 03:03 254 1 gusting 5 23.3
2014-Apr-22 02:43 305 2 gusting 5 22.8
2014-Apr-22 02:33 010 2 gusting 5 22.8
2014-Apr-22 02:13 323 2 gusting 5 21.7
2014-Apr-22 02:03 305 1 gusting 5 21.7